• Join FlightAware (Why Join?)
  • Login
  • US Flag 
12:38AM EDT


 

Airport Tracker/Info


-or-


 

Live Flight TrackerFlight Track Log ✈ SWA1017 ✈ 29-Apr-2013 ✈ KHRL - KAUS

Flight Track Log - Related Links

Times and Time Zones

All times are in EDT time to prevent confusion due to time zone crossing. See the SWA1017 flight status page for this flight to view local times or setup timezone preferences in your user account.

Time Position Orientation Groundspeed Altitude Reporting Facility
EDT Latitude Longitude Course Direction KTS MPH feet Rate Location/Type
02:55PM 26.2397 -97.6586 North 152 175 700  Level Houston Center
02:56PM 26.3142 -97.6464 North 260 299 4,100 3,000 Climbing Houston Center
02:56PM 26.3386 -97.6419 North 254 292 5,500 4,320 Climbing Houston Center
02:57PM 26.3933 -97.6403 North 303 349 8,500 4,440 Climbing Houston Center
02:57PM 26.4261 -97.6353 North 291 335 10,100 3,660 Climbing Houston Center
02:58PM 26.5181 -97.6228 North 340 391 13,500 3,120 Climbing Houston Center
02:59PM 26.6158 -97.6100 North 353 406 16,600 1,680 Climbing Houston Center
03:00PM 26.7294 -97.5953 North 380 437 17,000 180 Climbing Houston Center
03:02PM 26.8339 -97.5822 North 374 430 17,000  Level Houston Center
03:03PM 26.9461 -97.5675 North 375 432 17,000 1,620 Level Houston Center
03:04PM 27.0508 -97.5536 North 382 440 20,400 2,820 Climbing Houston Center
03:05PM 27.1600 -97.5411 North 389 448 22,900 1,680 Climbing Houston Center
03:06PM 27.2692 -97.5286 North 392 451 24,000 480 Climbing Houston Center
03:07PM 27.3800 -97.5472 352° North 400 460 24,000 660 Level Houston Center
03:08PM 27.4892 -97.5667 351° North 399 459 25,400 1,920 Climbing Houston Center
03:09PM 27.6253 -97.5964 349° North 414 476 28,000 2,160 Climbing Houston Center
03:10PM 27.7342 -97.6436 339° North 421 484 29,900 960 Climbing Houston Center
03:11PM 27.8472 -97.6922 339° North 433 498 30,000  Climbing Houston Center
03:12PM 27.9736 -97.7453 340° North 431 496 30,000 -60 Level Houston Center
03:13PM 28.0700 -97.7856 340° North 429 494 29,900  Descending Houston Center
03:14PM 28.1928 -97.8375 340° North 403 464 30,000  Climbing Houston Center
03:15PM 28.2875 -97.8767 340° North 390 449 30,000  Level Houston Center
03:16PM 28.3894 -97.9194 340° North 389 448 30,000  Level Houston Center
03:17PM 28.4928 -97.9642 339° North 394 453 30,000  Level Houston Center
03:18PM 28.6172 -98.0183 339° North 397 457 30,000  Level Houston Center
03:19PM 28.7208 -98.0617 340° North 398 458 30,000  Level Houston Center
03:20PM 28.8294 -98.1089 339° North 394 453 30,000  Level Houston Center
03:21PM 28.9403 -98.1572 339° North 396 456 30,000  Level Houston Center
03:22PM 29.0436 -98.2017 339° North 396 456 30,000 -660 Level Houston Center
03:23PM 29.1542 -98.2492 339° North 394 453 28,700 -1,920 Descending Houston Center
03:24PM 29.2569 -98.2931 340° North 394 453 26,100 -2,040 Descending Houston Center
03:25PM 29.3661 -98.3403 339° North 389 448 24,600 -1,260 Descending Houston Center
03:26PM 29.4642 -98.3831 339° North 380 437 23,600 -1,020 Descending Houston Center
03:27PM 29.5600 -98.4244 339° North 375 432 22,600 -1,020 Descending Houston Center
03:28PM 29.6642 -98.4444 351° North 369 425 21,500 -1,020 Descending Houston Center
03:29PM 29.7594 -98.3783 31° Northeast 374 430 20,500 -1,020 Descending Houston Center
03:31PM 29.8392 -98.3078 38° Northeast 363 418 19,400 -1,320 Descending Houston Center
03:32PM 29.9314 -98.2425 32° Northeast 357 411 17,800 -1,860 Descending Houston Center
03:33PM 30.0192 -98.1961 25° Northeast 346 398 15,600 -1,860 Descending Houston Center
03:34PM 30.1147 -98.1489 23° Northeast 345 397 14,000 -1,200 Descending Houston Center
03:35PM 30.1953 -98.1125 21° North 307 353 13,200 -900 Descending Houston Center
03:36PM 30.2661 -98.0736 25° Northeast 283 326 12,200 -2,280 Descending Houston Center
03:37PM 30.2783 -97.9697 82° East 303 349 8,600 -2,820 Descending Houston Center
03:38PM 30.2883 -97.8753 83° East 292 336 6,400 -1,800 Descending Houston Center
03:39PM 30.3053 -97.7878 77° East 283 326 4,900 -1,200 Descending Houston Center
03:40PM 30.3775 -97.7761 North 270 311 4,000 -420 Descending Houston Center
03:41PM 30.4469 -97.7817 356° North 253 291 4,100  Climbing Houston Center
03:42PM 30.4828 -97.7303 51° Northeast 230 265 4,000 -60 Descending Houston Center
03:43PM 30.4567 -97.6844 123° Southeast 220 253 4,000 -180 Level Houston Center
03:44PM 30.3828 -97.6839 180° South 226 260 3,700 -600 Descending Houston Center
03:45PM 30.3317 -97.6817 178° South 197 227 2,800 -840 Descending Houston Center
03:46PM 30.2914 -97.6803 178° South 164 189 2,000 -720 Descending Houston Center
03:47PM 30.2519 -97.6797 179° South 149 171 1,300 -540 Descending Houston Center
03:48PM 30.2089 -97.6789 179° South 145 167 1,000 -300 Descending Houston Center
03:50PM 30.1945 -97.6699 221° Southwest  Level Estimated
03:57PM 30.1945 -97.6699 221° Southwest  Level Estimated